Regional Weather Roundup
Issued by NWS

Home | Current Version | Previous Version | Graphics & Text | Print | Product List | Glossary On
Versions: 1 2 3 4 5 6 7 8 9 10 11 12 13 14 15 16 17 18 19 20 21 22 23 24 25 26 27 28 29 30 31 32 33 34 35 36 37 38 39 40 41 42 43 44 45 46 47 48 49 50
000
ASUS43 KLMK 271710
RWRKY
KENTUCKY REGIONAL WEATHER ROUNDUP
NATIONAL WEATHER SERVICE LOUISVILLE KY
1200 PM EST FRI FEB 27 2015

NOTE "FAIR" INDICATES FEW OR NO CLOUDS BELOW 12,000 FEET
WITH NO SIGNIFICANT WEATHER AND/OR OBSTRUCTIONS TO VISIBILITY.

KYZ001>023-026-027-061>063-070>075-271800-
WESTERN AND SOUTH CENTRAL KENTUCKY

CITY           SKY/WX    TMP DP  RH WIND       PRES   REMARKS
PADUCAH        SUNNY     20   9  62 N6        30.64R WCI  12
HENDERSON      MOSUNNY   19  10  68 N6        30.65F WCI  11
OWENSBORO      SUNNY     20  10  65 N7        30.64F WCI  11
HOPKINSVILLE   SUNNY     22  12  63 N12       30.61S WCI  11
BOWLING GREEN  MOSUNNY   24   8  50 NE9       30.60F WCI  14
GLASGOW        SUNNY     24   7  48 NE8       30.59S WCI  15
$$

KYZ024-025-028>034-038-045-046-053-271800-
NORTH CENTRAL KENTUCKY

CITY           SKY/WX    TMP DP  RH WIND       PRES   REMARKS
LOUISVILLE/SDF MOSUNNY   23   5  46 N7        30.63R WCI  15
LOUISVILLE/LOU SUNNY     22   4  46 VRB6      30.63R WCI  14
FORT KNOX      SUNNY     21   4  47 N12       30.59S WCI   9
$$

KYZ035>037-039>044-047>052-055>060-089>105-271800-
NORTHEAST KENTUCKY

CITY           SKY/WX    TMP DP  RH WIND       PRES   REMARKS
LEXINGTON      MOSUNNY   19   6  57 N3        30.59R
COVINGTON      MOSUNNY   19   2  47 NW10      30.59R WCI   7
FRANKFORT      CLOUDY    20   4  50 NE5       30.59R WCI  13
$$

KYZ054-064>069-076>088-106>120-271800-
SOUTHEAST KENTUCKY

CITY           SKY/WX    TMP DP  RH WIND       PRES   REMARKS
JACKSON        SUNNY     22   5  48 CALM      30.51R
LONDON         SUNNY     23   5  46 VRB6      30.53R WCI  16
SOMERSET       SUNNY     19   7  58 NE8       30.58R WCI   9
MIDDLESBORO    MOSUNNY   24  13  63 N8        30.51R WCI  15
MONTICELLO     SUNNY     24   9  53 NE6       30.59R WCI  17
$$




USA.gov is the U.S. government's official web portal to all federal, state and local government web resources and services.